EHI
6 4 2 1 0 0 0 0 0 0 0 0 0 0 0 0 0 1 1 1 0 0 0 0 0 0 0 0 0 0 0 0 0 0 0 0 0 0 0 1 0 0 0
8 6 4 3 1 0 0 0 0 0 0 0 0 0 0 0 0 0 0 0 0 0 0 1 1 0 0 0 0 0 0 0 0 0 0 0 0 0 0 1 0 0 0
7 6 6 6 4 1 0 0 0 0 0 0 0 0 0 0 0 0 0 0 0 0 1 2 2 1 1 0 0 0 0 0 0 0 0 0 0 0 0 0 0 0 0
7 7 10 12 10 6 3 2 1 0 0 0 0 0 0 0 0 0 0 0 0 0 1 2 2 2 1 0 0 0 0 0 0 0 0 0 0 0 0 0 0 0 0
13 14 17 18 16 11 7 4 2 0 0 0 0 0 0 0 0 0 0 0 0 0 0 1 1 1 1 0 0 0 0 0 0 0 0 0 0 0 0 0 0 0 0
14 15 15 17 15 10 6 4 2 1 1 0 0 0 0 0 0 0 0 0 0 0 0 0 0 0 0 0 0 0 0 0 0 0 0 0 0 0 0 0 0 0 0
7 6 6 7 8 6 4 2 1 1 1 0 0 0 0 0 0 0 0 0 0 0 0 0 0 0 0 0 0 0 0 0 0 0 1 2 2 1 1 0 0 0 0
2 1 1 1 2 3 3 2 1 1 1 0 0 0 0 0 0 0 0 0 0 0 0 0 0 0 0 0 0 0 0 0 0 0 1 2 3 2 1 0 0 0 0
2 1 0 0 1 2 1 1 1 1 0 0 0 0 0 0 0 0 0 0 0 0 0 0 0 0 0 0 0 0 0 0 0 0 0 1 2 1 0 0 0 0 0
1 1 0 0 1 1 0 1 1 1 1 0 0 0 0 0 0 0 0 0 0 0 0 0 0 0 0 0 0 0 0 0 0 0 1 3 3 1 0 0 0 0 0
0 0 0 0 0 0 0 1 2 2 2 1 0 0 0 0 0 0 0 1 1 0 0 0 0 0 0 0 0 0 0 0 0 0 4 8 7 3 1 0 0 0 0
0 0 0 0 0 0 0 1 1 1 1 1 0 0 0 0 0 0 0 1 2 1 0 0 0 0 0 0 0 0 0 0 0 2 10 16 12 4 1 0 0 0 0
0 0 0 0 0 0 0 0 0 0 0 0 0 0 0 0 0 0 0 1 1 1 0 0 0 0 0 0 0 0 0 0 0 4 16 25 19 6 1 0 0 0 0
0 0 0 0 0 0 0 0 0 0 0 0 0 0 0 0 0 0 0 0 0 0 0 0 0 0 0 0 0 0 0 0 1 6 18 28 21 8 1 0 0 0 0
0 0 0 0 0 0 0 0 0 0 0 0 0 0 0 0 0 0 0 0 0 0 1 0 0 0 0 0 0 0 0 0 2 6 13 19 15 7 2 1 0 0 0
0 0 0 0 0 0 0 0 0 0 0 0 0 0 0 0 0 0 0 0 0 0 0 0 0 0 0 0 0 0 0 0 2 4 7 8 7 4 2 2 1 0 0
0 0 0 0 0 0 0 0 0 0 0 0 0 0 0 0 0 0 0 0 0 0 0 0 0 0 0 0 0 0 0 0 1 2 2 2 2 2 1 2 2 1 0
0 0 0 0 0 0 0 0 0 0 0 0 0 0 0 0 0 0 0 0 0 0 0 0 0 0 0 0 0 0 0 0 0 0 0 0 0 0 0 1 3 3 2
0 0 0 0 0 0 0 0 0 0 0 0 0 0 0 0 0 0 0 0 0 0 0 0 0 0 0 0 0 0 0 0 0 0 0 0 0 0 0 0 2 3 2
0 0 0 0 0 0 0 0 0 0 0 0 0 0 0 0 0 0 0 0 0 1 1 0 0 0 0 0 0 0 0 0 0 0 0 0 0 1 1 0 0 1 1
0 0 0 0 0 0 0 0 0 0 0 0 0 0 0 0 0 0 0 0 0 1 1 0 0 0 0 0 0 0 0 0 0 0 0 0 0 1 1 1 0 0 0
0 0 0 0 0 0 0 0 0 0 0 0 0 0 0 0 0 0 0 0 0 1 1 0 0 0 0 0 0 0 0 0 0 0 0 0 0 0 2 3 1 0 0
0 0 0 0 0 0 0 0 0 0 0 0 0 0 0 0 0 0 0 0 0 0 0 0 0 0 0 0 0 0 0 0 0 0 0 0 0 0 2 3 1 0 0
0 0 0 0 0 0 0 0 0 0 0 0 0 0 0 0 0 0 0 0 0 0 0 0 0 0 0 0 0 0 0 0 0 0 0 0 0 0 1 1 0 0 0
0 0 0 0 0 0 0 0 0 0 0 0 0 0 0 0 0 0 0 0 0 0 0 0 0 0 0 0 0 0 0 0 0 0 0 0 0 0 0 0 0 0 0
0 0 0 0 0 0 0 0 0 0 0 0 0 0 0 0 0 0 0 0 0 0 0 0 0 0 0 0 0 0 0 0 0 0 0 0 0 0 0 0 0 0 0
Wind_Speed
9 12 11 9 7 6 5 5 4 3 3 3 2 2 1 1 2 2 2 3 3 4 5 5 5 5 6 5 5 5 5 5 5 5 5 5 5 5 6 6 5 6 8
11 12 11 9 7 5 4 4 3 2 2 1 1 0 1 1 1 2 2 2 3 3 3 4 4 4 5 4 4 4 4 4 3 2 1 3 4 5 6 7 8 5 8
11 11 10 9 7 5 4 3 2 2 1 2 2 2 2 2 2 2 2 3 3 3 2 3 3 3 3 4 4 4 4 3 4 4 3 1 4 5 6 7 7 7 7
11 10 10 9 8 6 5 4 3 3 3 3 4 4 4 4 4 3 3 4 3 3 3 2 3 3 3 3 3 4 3 4 5 6 3 2 4 6 6 6 6 6 6
11 11 10 10 8 7 6 5 4 4 4 4 5 5 5 5 5 5 5 5 4 4 3 3 2 2 3 3 3 3 4 4 6 6 2 4 5 6 5 5 5 5 5
10 10 10 10 8 7 6 5 5 4 4 4 5 5 6 6 6 6 6 6 5 5 4 3 3 3 3 3 3 3 4 5 6 4 1 4 5 5 5 4 4 4 4
7 7 7 7 6 6 5 4 3 4 4 4 4 5 5 6 6 6 6 6 6 6 5 4 4 3 3 3 3 4 4 6 6 3 0 5 5 6 5 4 4 4 4
6 4 5 5 4 3 3 2 2 2 3 3 4 5 5 6 6 7 7 7 7 7 6 5 5 4 5 4 4 5 5 7 6 3 1 5 8 7 5 4 4 4 4
3 3 3 2 2 2 1 0 1 2 2 3 3 4 5 6 7 7 8 8 8 8 7 7 6 6 6 6 6 6 6 6 5 4 2 5 8 7 6 4 4 4 3
3 2 1 1 1 1 1 3 3 3 3 4 4 5 5 7 7 8 8 8 9 8 8 8 7 7 7 7 7 7 7 6 6 4 1 6 10 8 6 5 4 4 3
5 4 3 3 2 1 2 1 2 3 4 4 4 6 5 3 4 4 5 5 7 8 8 8 8 8 8 9 10 10 7 4 5 3 3 9 10 8 6 5 4 4 4
5 5 5 5 4 3 3 1 1 2 2 3 2 3 2 3 3 4 4 6 7 7 8 9 9 9 7 5 9 10 5 7 6 3 6 12 11 9 7 6 5 4 4
5 6 6 6 6 5 3 2 1 1 2 2 3 3 3 3 2 3 2 2 3 5 4 5 5 4 5 5 4 6 8 7 4 3 7 13 12 10 8 7 6 5 5
6 5 5 7 7 6 5 4 3 2 1 1 2 3 3 2 3 3 3 2 2 2 2 2 2 4 6 7 6 7 8 5 3 3 7 13 12 11 9 7 7 6 5
5 5 6 6 6 6 4 3 4 3 3 3 2 2 3 3 3 3 3 3 3 3 3 3 3 4 5 6 5 6 5 6 4 6 6 12 13 11 10 9 8 8 7
6 6 5 6 5 6 5 5 4 4 3 3 2 3 3 2 2 3 3 3 3 3 3 3 4 4 4 4 5 4 4 3 3 6 7 9 12 12 11 10 10 9 9
7 7 5 5 6 6 6 6 5 4 4 3 3 4 4 3 2 2 2 2 3 4 4 4 4 3 4 5 5 5 4 3 2 4 7 7 7 11 12 11 11 11 10
6 6 5 6 6 6 5 5 4 3 4 4 4 4 5 5 4 3 1 2 2 3 3 4 4 4 4 4 4 4 4 2 3 2 4 6 7 7 10 12 12 12 11
4 5 5 5 4 5 5 5 4 3 3 3 3 3 5 6 6 4 2 2 3 2 3 4 3 4 4 4 4 4 4 2 3 4 4 5 6 8 8 11 13 13 12
4 4 5 3 4 4 4 5 4 4 4 3 3 4 5 5 6 5 3 3 2 2 2 2 3 4 4 4 5 4 3 3 2 3 4 4 4 7 9 10 9 10 13
5 4 4 5 5 4 3 4 4 4 4 3 3 4 4 4 5 5 4 4 3 2 3 3 2 3 4 3 2 2 3 4 4 3 4 4 4 4 6 9 8 7 8
3 4 6 6 4 4 3 3 4 4 3 2 3 3 4 5 4 5 4 4 3 2 3 3 2 2 2 3 3 2 2 2 4 6 5 5 5 4 5 10 9 9 9
4 5 6 5 5 5 5 3 4 3 3 3 4 3 4 4 3 3 4 4 4 3 3 3 3 3 3 3 3 3 3 3 2 3 6 6 5 4 4 5 8 9 10
4 5 5 5 5 5 5 4 5 4 4 4 3 3 4 4 3 3 4 4 4 3 3 3 3 2 3 3 3 3 3 2 2 2 3 5 6 5 5 4 5 6 8
3 3 3 3 4 3 3 3 3 3 3 3 3 4 4 3 3 3 3 4 4 3 3 3 3 3 3 3 3 2 3 3 3 2 3 3 3 4 4 4 4 3 5
2 2 1 1 2 2 3 4 3 3 4 4 4 4 4 3 3 4 4 4 4 3 4 4 3 4 3 4 4 3 3 3 3 3 3 3 3 3 4 4 3 3 3
Wind_Direction
107 112 115 105 98 92 85 78 73 69 69 70 76 73 63 49 35 24 13 11 13 18 21 17 20 19 25 28 30 37 40 42 45 51 67 79 80 74 62 49 56 79 82
108 112 111 103 94 87 83 76 68 56 45 31 15 345 323 331 331 336 336 339 347 0 8 6 11 12 14 15 18 26 31 29 21 19 58 105 102 86 68 59 68 84 84
98 111 108 97 88 74 61 49 30 2 335 308 292 287 285 287 290 292 302 312 320 329 345 353 0 1 6 6 5 10 15 8 345 323 296 224 124 97 82 75 79 85 86
82 90 94 90 80 69 54 37 10 342 320 304 289 284 284 279 278 281 284 288 298 308 319 336 349 344 354 355 351 351 345 331 317 312 300 124 118 100 90 85 84 89 90
75 79 82 82 77 70 59 43 25 2 343 324 307 295 285 280 278 277 275 277 282 290 298 311 323 323 322 326 327 330 326 310 305 303 329 84 94 103 94 91 91 93 95
75 79 77 74 72 69 63 49 34 17 359 338 321 306 295 286 278 275 272 271 273 275 278 284 285 287 294 296 304 309 309 302 301 293 25 97 103 102 97 94 97 103 103
68 76 82 81 76 70 64 53 34 17 3 344 324 311 300 290 284 279 274 269 267 268 269 268 265 270 276 278 284 290 291 295 279 283 142 105 113 112 104 98 99 102 108
66 67 89 97 93 74 56 45 27 352 343 340 331 317 302 289 283 277 273 269 265 263 263 261 254 258 263 265 269 275 280 284 288 292 181 119 127 120 107 98 97 103 116
85 79 90 121 129 128 168 267 314 324 317 307 310 313 307 294 280 272 267 262 260 258 255 254 250 250 254 254 257 261 269 276 288 280 224 125 129 123 117 108 102 106 119
67 56 67 99 109 163 218 222 238 270 283 284 279 280 283 286 277 267 260 257 254 253 252 251 250 246 247 248 248 249 255 270 261 264 132 131 132 128 125 120 110 111 117
36 20 15 5 352 311 264 211 216 254 256 268 274 266 265 267 278 275 260 263 258 253 251 250 248 247 245 243 240 239 242 244 245 220 129 137 138 137 135 131 123 117 121
21 15 6 352 345 332 324 346 232 258 232 239 238 241 230 238 254 273 274 255 254 254 253 248 246 246 242 243 228 225 230 231 240 200 151 151 147 147 148 146 143 134 130
25 17 0 358 345 344 337 332 322 271 234 233 240 234 222 227 235 248 252 252 245 242 242 250 240 238 237 239 222 201 222 229 215 178 155 157 153 155 157 157 156 154 147
30 8 10 2 346 350 349 344 302 286 275 262 236 242 227 211 217 227 224 220 224 225 218 228 243 246 253 252 236 218 219 218 190 139 155 159 158 163 167 169 169 167 161
29 9 23 1 353 346 335 310 316 325 320 310 292 260 241 224 222 223 222 209 209 211 210 215 234 256 270 272 256 244 234 214 188 153 156 166 164 169 175 178 178 177 174
20 14 22 354 0 346 342 341 336 336 322 317 309 300 286 258 235 220 227 218 210 208 209 212 229 244 263 280 285 275 269 233 196 152 158 171 173 175 181 185 186 183 182
16 9 7 354 12 357 353 342 331 327 335 340 330 321 313 300 279 259 241 236 219 209 208 212 226 244 255 265 279 280 276 260 233 179 167 170 179 185 186 187 187 187 187
18 359 359 10 6 359 352 332 325 332 348 336 334 342 337 336 334 322 303 282 256 222 208 205 206 213 235 246 261 276 275 265 253 251 189 179 176 183 192 191 186 187 190
20 355 355 26 10 5 351 329 330 348 352 339 349 360 347 344 334 325 315 293 283 248 222 222 204 200 220 232 242 257 275 268 256 253 244 213 187 176 179 190 188 186 189
40 360 344 28 30 12 5 335 351 354 347 354 360 4 357 341 338 333 318 307 301 284 256 236 219 207 211 216 240 247 259 269 263 256 254 246 209 185 180 178 183 190 192
38 353 344 31 27 17 14 342 347 345 338 355 0 8 349 347 346 338 333 324 320 296 279 261 236 224 222 205 209 250 260 255 256 251 258 260 240 205 177 171 179 183 190
34 3 6 29 22 21 13 350 340 348 333 355 354 359 356 355 353 345 345 331 318 303 287 277 256 234 238 207 186 186 232 251 251 240 241 247 247 223 191 178 186 187 180
38 26 9 23 19 28 6 8 351 343 339 0 353 354 343 336 354 355 344 337 327 322 301 293 261 244 246 239 214 193 192 215 223 232 233 233 238 238 219 192 190 191 183
42 37 12 20 17 24 6 9 348 356 354 340 338 342 336 343 0 4 350 340 335 327 317 304 296 261 243 249 253 238 235 225 187 228 250 234 233 235 231 224 209 197 185
47 50 21 22 15 20 355 330 330 1 332 324 331 340 340 339 348 8 356 341 331 323 320 313 312 282 249 240 239 244 253 254 236 212 233 233 233 235 227 224 222 214 193
77 62 21 34 9 359 333 326 342 352 336 332 345 346 339 331 342 7 356 342 332 334 323 311 302 289 269 254 247 236 227 226 222 217 224 225 227 234 227 222 221 219 206